Regional Weather Roundup
Issued by NWS

Home | Current Version | Previous Version | Graphics & Text | Print | Product List | Glossary On
Versions: 1 2 3 4 5 6 7 8 9 10 11 12 13 14 15 16 17 18 19 20 21 22 23 24 25 26 27
000
ASUS45 KBOU 231510
RWRCO

WEATHER ROUNDUP FOR COLORADO
NATIONAL WEATHER SERVICE DENVER/BOULDER CO
800 AM MST THU NOV 23 2017

NOTE: "FAIR" INDICATES FEW OR NO CLOUDS BELOW 12000 FEET WITH NO
SIGNIFICANT WEATHER AND/OR OBSTRUCTIONS TO VISIBILITY.

COZ001>005-013-030-031-231600-
...NORTHWEST COLORADO...

CITY           SKY/WX    TMP DP  RH WIND       PRES   REMARKS
CRAIG          FAIR      29  26  89 CALM      30.38F
HAYDEN         FAIR      35  32  88 E10       30.39S WCI  27
MEEKER         FAIR      31  28  89 CALM      30.40S
RABBIT EARS PA FAIR     N/A N/A N/A W6        30.48S
STEAMBOAT SPGS CLOUDY    28  28 100 CALM      30.40S VSB<1/4
WALDEN         FAIR      39  32  75 S12       30.40S
$$

COZ006>008-011-231600-
...WEST CENTRAL VALLEYS...

CITY           SKY/WX    TMP DP  RH WIND       PRES   REMARKS
GRAND JUNCTION FAIR      36  31  82 SE6       30.38R
MONTROSE       FAIR      34  29  82 SE7       30.42S WCI  28
EAGLE          FOG       26  25  96 CALM      30.49R VSB 1/4
RIFLE          FAIR      30  28  92 E5        30.42S WCI  25
DELTA          FAIR      34  28  79 E3        30.42R
NUCLA          FAIR      34  28  80 E6        30.44S WCI  29
$$

COZ017>023-064>068-231600-
...SOUTHWEST COLORADO...

CITY           SKY/WX    TMP DP  RH WIND       PRES   REMARKS
DURANGO        NOT AVBL
CORTEZ         FAIR      28  24  85 NE3       30.39R
PAGOSA SPRINGS FAIR      33  25  71 CALM      30.42S
TELLURIDE      FAIR      37  26  63 SE6       30.50S
WOLF CREEK PAS FAIR      36  10  35 NW5       30.63R
$$

COZ009-010-012-014-032>034-037-058>063-231600-
...CENTRAL COLORADO...

CITY           SKY/WX    TMP DP  RH WIND       PRES   REMARKS
ASPEN          FAIR      32  27  81 CALM      30.44S
BUENA VISTA    FAIR      37  30  74 NW8       30.42S
COPPER MTN     FAIR      32  28  86 MISG      30.54F
BERTHOUD PASS  CLOUDY    23  12  63 NW31G38   30.48R WCI   5
COTTONWOOD PAS FAIR      43  27  52 NW7       30.47S
GUNNISON       FAIR      23  20  88 CALM      30.51R
KREMMLING      FOG       32  30  93 CALM      30.45S VSB<1/4
LEADVILLE      FAIR      27  23  85 NE8       30.47F WCI  19
MONARCH PASS   FAIR      28  27  93 SW20      30.66S WCI  15
SALIDA         FAIR      36  32  86 CALM      30.48S
SUNLIGHT       FAIR      34  25  69 CALM      30.56F
WILKERSON PASS FAIR      34  14  44 NW9       30.50S WCI  26
$$

COZ069>075-231600-
...SAN LUIS VALLEY/SANGRE DE CRISTO MOUNTAINS...

CITY           SKY/WX    TMP DP  RH WIND       PRES   REMARKS
ALAMOSA        FAIR      29  25  85 CALM      30.42R
DEL NORTE      FAIR      37  26  64 CALM      30.43R
LA VETA PASS   FAIR      34  30  86 SW22        N/A  WCI  22
SAGUACHE       FAIR      37  30  75 NW16      30.42S
$$

COZ035-036-038>040-231600-
...NORTHERN COLORADO FRONT RANGE...

CITY           SKY/WX    TMP DP  RH WIND       PRES   REMARKS
DENVER INTL AP PTSUNNY   51  31  46 SW16      30.19S
DMNS CITY PARK   N/A     50  31  49 SE7G13    30.20S
AURORA         PTSUNNY   48  32  54 SW13      30.21F
FRONT RANGE AP PTSUNNY   52  34  50 S15       30.20F
ERIE MUNI ARPT FAIR      41  36  84 CALM      30.23F
BOULDER MUN AP FAIR      54  32  43 SE3       30.18S
CENTENNIAL     PTSUNNY   47  33  58 SE3       30.22F
BROOMFIELD     MOCLDY    55  30  38 W8        30.22R
FORT COLLINS   FAIR      43  35  73 N3        30.19S
LONGMONT       FAIR      42  36  78 CALM      30.20S
$$

COZ041-046-047-076>085-087-088-231600-
...PIKES PEAK/PALMER DIVIDE AND SOUTHERN FOOTHILLS...

CITY           SKY/WX    TMP DP  RH WIND       PRES   REMARKS
COLO. SPRINGS  PTSUNNY   45  32  60 NW7       30.29R
A. F. ACADEMY  FAIR      38  32  78 N7        30.28S
SCHRIEVER AFB  FAIR      50  30  46 NW5       30.28S
CHEYENNE MTN   FAIR      53  29  38 S5        30.25S
ELLICOTT         N/A    N/A N/A N/A CALM      30.26S
FALCON         FAIR      45  31  56 W9        30.31R
FORT CARSON    FAIR      44  31  61 N7        30.26S
LIMON          FAIR      39  34  82 N5        30.23S
MONUMENT HILL  FAIR      43  32  65 SW9       30.30S
CANON CITY     FAIR      52  34  50 NW13      30.26S
WALSENBURG     FAIR      48  34  57 CALM      30.29S
TRINIDAD       FAIR      46  31  55 SW14      30.28F
$$

COZ042>045-048>051-090-091-231600-
...NORTHEAST COLORADO...

CITY           SKY/WX    TMP DP  RH WIND       PRES   REMARKS
GREELEY ARPT   FAIR      33  30  88 VRB3      30.19S
AKRON          FAIR      47  35  63 SW13      30.16S
BURLINGTON     FAIR      48  39  71 W8        30.18S
WRAY           NOT AVBL
YUMA           FAIR      45  36  70 W9        30.15R
STERLING       FAIR      36  34  93 S8        30.15F
HOLYOKE        FAIR      43  37  81 W7        30.14R
FORT MORGAN    FAIR      39  33  79 W8        30.18R
$$

COZ086-089-092>099-231600-
...SOUTHEAST COLORADO...

CITY           SKY/WX    TMP DP  RH WIND       PRES   REMARKS
PUEBLO         FAIR      37  31  78 W5        30.24S
LA JUNTA       FAIR      48  34  58 SW7       30.22F
LAMAR          FAIR      42  31  64 W6        30.20S
SPRINGFIELD      N/A     50  35  56 W6        30.22F
$$




USA.gov is the U.S. government's official web portal to all federal, state and local government web resources and services.